This is the latest recevied weather packets stored in our database for station/object WA4TPR. If no packets are shown the sender has not sent any weather packets the latest 10 day(s).
| Time | Temp. | Humidity | Pressure | Rain* | Wind** | Luminosity | Snow |
|---|---|---|---|---|---|---|---|
| 1778080357 | 30° C | 70% | 1021.5 hPa | 0 mm | - | 628 W/m² | - |
| 1778080054 | 30° C | 71% | 1021.5 hPa | 0 mm | - | 651 W/m² | - |
| 1778079751 | 29.44° C | 72% | 1021.6 hPa | 0 mm | - | 634 W/m² | - |
| 1778079448 | 28.89° C | 74% | 1021.5 hPa | 0 mm | - | 604 W/m² | - |
| 1778079145 | 28.89° C | 74% | 1021.6 hPa | 0 mm | - | 618 W/m² | - |
| 1778078842 | 28.89° C | 76% | 1021.3 hPa | 0 mm | - | 606 W/m² | - |
| 1778078539 | 28.33° C | 78% | 1021.4 hPa | 0 mm | - | 579 W/m² | - |
| 1778078237 | 28.89° C | 76% | 1021.3 hPa | 0 mm | - | 565 W/m² | - |
| 1778077934 | 28.33° C | 79% | 1021.4 hPa | 0 mm | - | 557 W/m² | - |
| 1778077633 | 28.33° C | 78% | 1021.1 hPa | 0 mm | - | 535 W/m² | - |
| 1778077330 | 28.33° C | 79% | 1021.2 hPa | 0 mm | - | 514 W/m² | - |
| 1778077028 | 27.78° C | 81% | 1021.5 hPa | 0 mm | - | 493 W/m² | - |
| 1778076726 | 27.22° C | 82% | 1021.4 hPa | 0 mm | - | 460 W/m² | - |
| 1778076424 | 26.67° C | 84% | 1021.5 hPa | 0 mm | - | 470 W/m² | - |
| 1778076120 | 26.67° C | 85% | 1021.5 hPa | 0 mm | - | 452 W/m² | - |
| 1778075817 | 26.67° C | 84% | 1021.5 hPa | 0 mm | - | 401 W/m² | - |
| 1778075513 | 26.67° C | 85% | 1021.2 hPa | 0 mm | - | 399 W/m² | - |
| 1778075210 | 26.67° C | 86% | 1021.2 hPa | 0 mm | - | 381 W/m² | - |
| 1778074906 | 26.67° C | 86% | 1021.3 hPa | 0 mm | - | 369 W/m² | - |
| 1778074603 | 26.11° C | 87% | 1021.3 hPa | 0 mm | - | 342 W/m² | - |
| 1778074300 | 26.11° C | 88% | 1021.3 hPa | 0 mm | - | 133 W/m² | - |
| 1778073998 | 26.11° C | 87% | 1021.3 hPa | 0 mm | - | 308 W/m² | - |
| 1778073694 | 25.56° C | 89% | 1021 hPa | 0 mm | - | 302 W/m² | - |
| 1778073392 | 25.56° C | 89% | 1021 hPa | 0 mm | - | 194 W/m² | - |
| 1778073088 | 25° C | 90% | 1021.2 hPa | 0 mm | - | 182 W/m² | - |
* Rain latest hour (hover to see other rain measurements)
** Current wind speed in m/s (hover to see current wind gust speed)